| time (UTC) | temp C | wind direction | speed KPH | gust KPH | rain 1hr cm | rain 24hr cm | rain mn cm | humidity % | barometer mb |
| 20260504033006 | 23 | 91 | 8.0 | 19.3 | 0.00 | 0.00 | 0.00 | 71 | 1016.7 |
| 20260504031505 | 23 | 113 | 4.8 | 16.1 | 0.00 | 0.00 | 0.00 | 71 | 1016.8 |
| 20260504030004 | 23 | 126 | 6.4 | 20.9 | 0.00 | 0.00 | 0.00 | 71 | 1016.9 |
| 20260504024507 | 23 | 172 | 6.4 | 14.5 | 0.00 | 0.00 | 0.00 | 71 | 1016.7 |
| 20260504023004 | 23 | 87 | 8.0 | 14.5 | 0.00 | 0.00 | 0.00 | 71 | 1016.6 |
| 20260504021502 | 23 | 107 | 3.2 | 16.1 | 0.00 | 0.00 | 0.00 | 72 | 1016.4 |
| 20260504020002 | 23 | 108 | 4.8 | 14.5 | 0.00 | 0.00 | 0.00 | 71 | 1016.5 |
| 20260504014502 | 23 | 93 | 3.2 | 17.7 | 0.00 | 0.00 | 0.00 | 71 | 1016.4 |
| 20260504013001 | 23 | 101 | 4.8 | 17.7 | 0.00 | 0.00 | 0.00 | 71 | 1016.4 |
| 20260504011600 | 23 | 90 | 3.2 | 19.3 | 0.00 | 0.00 | 0.00 | 71 | 1016.3 |
| 20260504010100 | 23 | 86 | 12.9 | 22.5 | 0.00 | 0.00 | 0.00 | 71 | 1016.4 |
| 20260504004600 | 23 | 73 | 11.3 | 19.3 | 0.00 | 0.00 | 0.00 | 70 | 1016.2 |
| 20260504003058 | 24 | 108 | 8.0 | 20.9 | 0.00 | 0.00 | 0.00 | 68 | 1016.0 |
| 20260504001558 | 25 | 115 | 6.4 | 19.3 | 0.00 | 0.00 | 0.00 | 66 | 1016.1 |
| 20260504000135 | 25 | 80 | 6.4 | 19.3 | 0.00 | 0.00 | 0.00 | 66 | 1016.2 |
| 20260503234554 | 25 | 134 | 8.0 | 20.9 | 0.00 | 0.00 | 0.00 | 65 | 1016.2 |
| 20260503233053 | 25 | 71 | 8.0 | 17.7 | 0.00 | 0.00 | 0.00 | 64 | 1016.4 |
| 20260503231552 | 25 | 95 | 4.8 | 17.7 | 0.00 | 0.00 | 0.00 | 63 | 1016.5 |
| 20260503230054 | 25 | 77 | 12.9 | 20.9 | 0.00 | 0.00 | 0.00 | 63 | 1016.5 |
| 20260503224553 | 25 | 76 | 14.5 | 20.9 | 0.00 | 0.00 | 0.00 | 62 | 1016.7 |
| 20260503223049 | 25 | 76 | 12.9 | 20.9 | 0.00 | 0.00 | 0.00 | 62 | 1016.8 |
| 20260503221546 | 26 | 89 | 16.1 | 22.5 | 0.00 | 0.00 | 0.00 | 62 | 1017.2 |
| 20260503213037 | 25 | 82 | 14.5 | 24.1 | 0.00 | 0.00 | 0.00 | 63 | 1017.4 |
| 20260503211535 | 25 | 71 | 17.7 | 24.1 | 0.00 | 0.00 | 0.00 | 60 | 1017.6 |
| 20260503210033 | 26 | 77 | 17.7 | 22.5 | 0.00 | 0.00 | 0.00 | 60 | 1017.8 |
| 20260503204531 | 26 | 74 | 17.7 | 20.9 | 0.00 | 0.00 | 0.00 | 59 | 1018.3 |
| 20260503203033 | 26 | 75 | 16.1 | 24.1 | 0.00 | 0.00 | 0.00 | 59 | 1018.6 |
| 20260503201525 | 25 | 76 | 16.1 | 24.1 | 0.00 | 0.00 | 0.00 | 59 | 1018.8 |
| 20260503200025 | 25 | 89 | 16.1 | 24.1 | 0.00 | 0.00 | 0.00 | 62 | 1019.0 |
| 20260503194523 | 25 | 66 | 17.7 | 22.5 | 0.00 | 0.00 | 0.00 | 60 | 1019.2 |
| 20260503193023 | 25 | 79 | 19.3 | 24.1 | 0.00 | 0.00 | 0.00 | 60 | 1019.4 |
| 20260503191522 | 25 | 67 | 16.1 | 20.9 | 0.00 | 0.00 | 0.00 | 61 | 1019.6 |
| 20260503190024 | 25 | 69 | 19.3 | 24.1 | 0.00 | 0.00 | 0.00 | 60 | 1019.8 |
| 20260503184521 | 25 | 65 | 16.1 | 22.5 | 0.00 | 0.00 | 0.00 | 62 | 1019.9 |
| 20260503183024 | 25 | 74 | 19.3 | 22.5 | 0.00 | 0.00 | 0.00 | 59 | 1020.1 |
| 20260503181519 | 25 | 70 | 17.7 | 20.9 | 0.00 | 0.00 | 0.00 | 61 | 1020.3 |
| 20260503180018 | 25 | 64 | 14.5 | 17.7 | 0.00 | 0.00 | 0.00 | 62 | 1020.5 |
| 20260503174519 | 25 | 51 | 12.9 | 17.7 | 0.00 | 0.00 | 0.00 | 65 | 1020.5 |
| 20260503173014 | 25 | 38 | 14.5 | 17.7 | 0.00 | 0.00 | 0.00 | 64 | 1020.8 |
| 20260503171511 | 24 | 36 | 12.9 | 19.3 | 0.00 | 0.00 | 0.00 | 64 | 1021.1 |
| 20260503081531 | 18 | 325 | 0.0 | 6.4 | 0.00 | 0.03 | 0.00 | 77 | 1019.5 |
| 20260503071524 | 18 | 294 | 0.0 | 6.4 | 0.00 | 0.03 | 0.00 | 75 | 1019.4 |
| 20260503054521 | 20 | 277 | 3.2 | 9.7 | 0.00 | 0.03 | 0.00 | 71 | 1020.3 |
| 20260503053006 | 22 | 30 | 11.3 | 20.9 | 0.00 | 0.03 | 0.00 | 69 | 1020.1 |
| 20260503051505 | 22 | 42 | 14.5 | 22.5 | 0.00 | 0.03 | 0.00 | 68 | 1019.9 |
| 20260503050001 | 22 | 46 | 17.7 | 24.1 | 0.00 | 0.03 | 0.03 | 69 | 1019.6 |
| 20260503044503 | 22 | 52 | 17.7 | 24.1 | 0.00 | 0.03 | 0.03 | 68 | 1019.6 |
| 20260503043100 | 22 | 57 | 17.7 | 25.7 | 0.00 | 0.03 | 0.03 | 68 | 1019.6 |
| 20260503041605 | 22 | 48 | 19.3 | 25.7 | 0.00 | 0.03 | 0.03 | 66 | 1019.8 |
| 20260503040058 | 22 | 46 | 20.9 | 25.7 | 0.00 | 0.03 | 0.03 | 66 | 1019.8 |
| 20260503034556 | 22 | 49 | 19.3 | 25.7 | 0.00 | 0.03 | 0.03 | 66 | 1019.5 |